LEMUR-2-JEROEN (40934 NORAD) Tracking and Keplerian Element Data

This shows tracking and keplerian element data for the satellite.

Feedback or suggestion? Click here.




ElementValue
Catalog40934
NameLEMUR-2-JEROEN
Epoch Orbit12549
Epoch Day23.05094034
Epoch Year2018
RAAN102.9692
Inclination6.0108
Eccentricity0.0008665
Argument of Perigee125.4218
Mean Anonmoly236.4358
Mean Motion14.77011567
Decay Rate-0.00101216
L11 40934U 15052E 18023.05094034 -.00101216 00000-0 -14310-1 0 9995
L22 40934 6.0108 102.9692 0008665 125.4218 236.4358 14.77011567125495



Live tracking and technical data element details for LEMUR-2-JEROEN (NORAD 40934). LEMUR-2-JEROEN can be tracked NOW for your location showing map with azimuth and elevation plus other details from your city location.







IsCatalogInMostPopularTable: catalog: 40934, numindb: 363
Update: records affected: 1



GetName: 40934 LEMUR-2-JEROEN

Hit Count: updated at: Thu, 15 May 2025 19:29:12 GMT